Location: Bastrop State Park
(30.1090°N, 97.2819°W)
Time: 06:50:19
(UTC-05:00)

ISS - Visible Passes

Search period start: 01 November 2014 00:00
Search period end: 10 November 2014 23:00
Orbit: 412 x 417 km, 51.6° (Epoch: 01 November)

Date Brightness Start Highest point End Pass type
(mag) Time Alt. Az. Time Alt. Az. Time Alt. Az.
05 Nov 0.1 06:07:23 10° SSE 06:09:01 13° SE 06:10:40 10° E visible
07 Nov -2.1 06:03:32 10° SSW 06:06:42 46° SE 06:09:54 10° NE visible
08 Nov -0.8 05:14:47 10° S 05:17:24 22° SE 05:20:01 10° ENE visible
09 Nov 0.1 04:28:20 11° ESE 04:28:20 11° ESE 04:28:54 10° ESE visible
09 Nov -2.9 06:01:16 10° WSW 06:04:25 43° NW 06:07:36 10° NNE visible
10 Nov -3.2 05:15:10 75° ENE 05:15:10 75° ENE 05:18:14 10° NE visible
